Location: ?????
(33.6267°N, 35.4675°E)
Time: 08:52:26
(UTC+00:00)

FengYun 1-2 T - Pass Details

Date: 12 November 2019
Orbit: 846 x 881 km, 98.7° (Epoch: 11 December)

Event Time Altitude Azimuth Distance (km) Brightness Sun altitude
Rises 15:41:36 0° 157° (SSE) 3,433 7.3 -13.6°
Reaches altitude 10° 15:44:00 10° 154° (SSE) 2,494 6.5 -14.1°
Maximum altitude 15:49:28 64° 74° (ENE) 948 4.2 -15.2°
Drops below altitude 10° 15:54:55 10° 354° (N) 2,486 6.6 -16.3°
Sets 15:57:18 0° 352° (N) 3,422 7.3 -16.8°
